Weather History for KCWI - September, 2013

Change the Weather History Date:

Sunday, September 1, 2013

  Actual Average Record
Temperature  
Mean Temperature 74 °F -  
Max Temperature 87 °F 82 °F 100 °F (1953)
Min Temperature 62 °F 60 °F 42 °F (1949)
Cooling Degree Days 10    
Growing Degree Days 24 (Base 50)    
Moisture  
Dew Point 64 °F    
Average Humidity 77    
Maximum Humidity 94    
Minimum Humidity 49    
Precipitation  
Precipitation 0.00 in - - ()
Sea Level Pressure  
Sea Level Pressure 29.83 in    
Wind  
Wind Speed 5 mph (WNW)    
Max Wind Speed 15 mph    
Max Gust Speed 17 mph    
Visibility 7 miles    
Events      
Averages and records for this station are not official NWS values.
T = Trace of Precipitation, MM = Missing Value Source: NWS Daily Summary

Daily Weather History Graph

Daily Weather History Graph

Search for Another Location

Airport or City:

Trip Planner

Search our weather history database for the weather conditions in past years. The results will help you decide how hot, cold, wet, or windy it might be!

Date:

Astronomy

Sep. 01, 2013 Rise Set
Actual Time 6:27 AM CDT 7:34 PM CDT
Civil Twilight 5:58 AM CDT 8:02 PM CDT
Nautical Twilight 5:24 AM CDT 8:36 PM CDT
Astronomical Twilight 4:48 AM CDT 9:12 PM CDT
Moon 2:47 AM CDT (9/1) 5:13 PM CDT (9/1)
Length of Visible Light 14h 04m
Length of Day
13h 06m
Waning Crescent, 13% of the Moon is Illuminated
Sep 1
Waning Crescent
Sep 5
New
Sep 12
First Quarter
Sep 19
Full
Sep 26
Last Quarter

Hourly Weather History & Observations

Time (CDT) Temp. Heat Index Dew Point Humidity Pressure Visibility Wind Dir Wind Speed Gust Speed Precip Events Conditions
12:15 AM 68.0 °F - 64.4 °F 88% 29.84 in 5.0 mi Calm Calm - N/A   Clear
12:35 AM 66.2 °F - 64.4 °F 94% 29.85 in 9.0 mi Calm Calm - N/A   Clear
12:55 AM 66.2 °F - 64.4 °F 94% 29.84 in 7.0 mi Calm Calm - N/A   Clear
1:15 AM 66.2 °F - 64.4 °F 94% 29.84 in 5.0 mi Calm Calm - N/A   Clear
1:35 AM 64.4 °F - 62.6 °F 94% 29.83 in 1.0 mi Calm Calm - N/A   Clear
1:55 AM 64.4 °F - 62.6 °F 94% 29.84 in 3.0 mi ENE 4.6 mph - N/A   Clear
2:15 AM 64.4 °F - 62.6 °F 94% 29.84 in 0.5 mi Calm Calm - N/A   Unknown
2:35 AM 62.6 °F - 60.8 °F 94% 29.83 in 0.5 mi East 4.6 mph - N/A   Unknown
2:55 AM 62.6 °F - 60.8 °F 94% 29.83 in 0.5 mi ESE 4.6 mph - N/A   Unknown
3:15 AM 64.4 °F - 62.6 °F 94% 29.83 in 1.0 mi SSE 3.5 mph - N/A   Clear
3:35 AM 62.6 °F - 60.8 °F 94% 29.83 in 0.2 mi South 6.9 mph - N/A   Unknown
3:55 AM 62.6 °F - 60.8 °F 94% 29.82 in 0.2 mi South 4.6 mph - N/A   Unknown
4:15 AM 64.4 °F - 62.6 °F 94% 29.82 in 0.2 mi SSE 4.6 mph - N/A   Unknown
4:35 AM 64.4 °F - 62.6 °F 94% 29.82 in 0.2 mi South 6.9 mph - N/A   Unknown
4:55 AM 62.6 °F - 60.8 °F 94% 29.82 in 0.8 mi SSW 3.5 mph - N/A   Unknown
5:15 AM 62.6 °F - 60.8 °F 94% 29.83 in 0.8 mi WNW 5.8 mph - N/A   Unknown
5:35 AM 62.6 °F - 60.8 °F 94% 29.83 in 0.2 mi NNW 4.6 mph - N/A   Unknown
5:55 AM 62.6 °F - 60.8 °F 94% 29.84 in 0.8 mi NW 4.6 mph - N/A   Unknown
6:15 AM 62.6 °F - 60.8 °F 94% 29.84 in 1.2 mi Calm Calm - N/A   Clear
6:35 AM 62.6 °F - 60.8 °F 94% 29.83 in 2.5 mi Calm Calm - N/A   Clear
6:55 AM 62.6 °F - 60.8 °F 94% 29.82 in 0.5 mi Calm Calm - N/A   Unknown
7:15 AM 62.6 °F - 60.8 °F 94% 29.82 in 1.2 mi Calm Calm - N/A   Clear
7:35 AM 64.4 °F - 62.6 °F 94% 29.82 in 2.0 mi Calm Calm - N/A   Mostly Cloudy
7:55 AM 66.2 °F - 64.4 °F 94% 29.83 in 0.2 mi West 3.5 mph - N/A   Overcast
8:15 AM 66.2 °F - 64.4 °F 94% 29.84 in 0.5 mi West 4.6 mph - N/A   Overcast
8:35 AM 68.0 °F - 66.2 °F 94% 29.83 in 2.0 mi West 5.8 mph - N/A   Mostly Cloudy
8:55 AM 69.8 °F - 68.0 °F 94% 29.83 in 3.0 mi West 6.9 mph - N/A   Partly Cloudy
9:15 AM 71.6 °F - 69.8 °F 94% 29.84 in 3.0 mi WSW 9.2 mph - N/A   Partly Cloudy
9:35 AM 71.6 °F - 69.8 °F 94% 29.83 in 5.0 mi West 9.2 mph - N/A   Partly Cloudy
9:55 AM 73.4 °F - 69.8 °F 88% 29.83 in 8.0 mi WSW 6.9 mph - N/A   Clear
10:15 AM 75.2 °F - 69.8 °F 83% 29.81 in 10.0 mi West 3.5 mph - N/A   Clear
10:35 AM 75.2 °F - 69.8 °F 83% 29.81 in 10.0 mi WSW 4.6 mph - N/A   Clear
10:55 AM 78.8 °F - 69.8 °F 74% 29.80 in 10.0 mi Calm Calm - N/A   Clear
11:15 AM 80.6 °F 84.6 °F 71.6 °F 74% 29.80 in 10.0 mi NW 6.9 mph - N/A   Clear
11:35 AM 80.6 °F 84.6 °F 71.6 °F 74% 29.80 in 10.0 mi Calm Calm - N/A   Scattered Clouds
11:55 AM 82.4 °F 87.2 °F 71.6 °F 70% 29.80 in 10.0 mi NW 9.2 mph - N/A   Scattered Clouds
12:15 PM 82.4 °F 87.2 °F 71.6 °F 70% 29.80 in 10.0 mi WNW 5.8 mph - N/A   Partly Cloudy
12:35 PM 84.2 °F 89.6 °F 71.6 °F 66% 29.80 in 10.0 mi NW 8.1 mph - N/A   Partly Cloudy
12:55 PM 84.2 °F 89.6 °F 71.6 °F 66% 29.80 in 10.0 mi WNW 5.8 mph - N/A   Partly Cloudy
1:15 PM 84.2 °F 88.4 °F 69.8 °F 62% 29.80 in 10.0 mi WNW 8.1 mph - N/A   Partly Cloudy
1:35 PM 84.2 °F 89.6 °F 71.6 °F 66% 29.80 in 10.0 mi WNW 9.2 mph - N/A   Partly Cloudy
1:55 PM 86.0 °F 90.4 °F 69.8 °F 58% 29.79 in 10.0 mi WNW 5.8 mph - N/A   Partly Cloudy
2:15 PM 86.0 °F 90.4 °F 69.8 °F 58% 29.79 in 10.0 mi NW 10.4 mph - N/A   Clear
2:35 PM 86.0 °F 89.4 °F 68.0 °F 55% 29.79 in 10.0 mi NNW 8.1 mph - N/A   Clear
2:55 PM 87.8 °F 90.4 °F 66.2 °F 49% 29.78 in 10.0 mi WNW 11.5 mph 17.3 mph N/A   Clear
3:15 PM 86.0 °F 88.2 °F 66.2 °F 51% 29.78 in 10.0 mi WNW 9.2 mph - N/A   Clear
3:35 PM 86.0 °F 88.2 °F 66.2 °F 51% 29.77 in 10.0 mi WNW 12.7 mph - N/A   Scattered Clouds
3:55 PM 84.2 °F 86.6 °F 66.2 °F 55% 29.77 in 10.0 mi WNW 11.5 mph 16.1 mph N/A   Scattered Clouds
4:15 PM 86.0 °F 90.4 °F 69.8 °F 58% 29.78 in 10.0 mi WNW 11.5 mph - N/A   Clear
4:35 PM 86.0 °F 89.4 °F 68.0 °F 55% 29.78 in 10.0 mi WNW 11.5 mph - N/A   Clear
4:55 PM 84.2 °F 88.4 °F 69.8 °F 62% 29.78 in 10.0 mi WNW 11.5 mph 16.1 mph N/A   Clear
5:15 PM 82.4 °F 84.6 °F 66.2 °F 58% 29.79 in 10.0 mi NW 11.5 mph 16.1 mph N/A   Scattered Clouds
5:35 PM 84.2 °F 86.6 °F 66.2 °F 55% 29.80 in 10.0 mi NW 15.0 mph - N/A   Scattered Clouds
5:55 PM 82.4 °F 83.9 °F 64.4 °F 54% 29.80 in 10.0 mi NW 13.8 mph - N/A   Mostly Cloudy
6:15 PM 82.4 °F 83.4 °F 62.6 °F 51% 29.81 in 10.0 mi NW 12.7 mph - N/A   Mostly Cloudy
6:35 PM 80.6 °F 81.5 °F 60.8 °F 51% 29.81 in 10.0 mi NNW 11.5 mph - N/A   Scattered Clouds
6:55 PM 78.8 °F - 60.8 °F 54% 29.81 in 10.0 mi NW 9.2 mph - N/A   Clear
7:15 PM 75.2 °F - 60.8 °F 61% 29.82 in 10.0 mi NNW 8.1 mph - N/A   Clear
7:35 PM 73.4 °F - 59.0 °F 61% 29.83 in 10.0 mi NNW 9.2 mph - N/A   Clear
7:55 PM 73.4 °F - 59.0 °F 61% 29.84 in 10.0 mi NW 10.4 mph - N/A   Clear
8:15 PM 71.6 °F - 60.8 °F 69% 29.84 in 10.0 mi NNW 8.1 mph - N/A   Clear
8:35 PM 71.6 °F - 59.0 °F 64% 29.86 in 10.0 mi NNW 8.1 mph - N/A   Clear
8:55 PM 69.8 °F - 59.0 °F 68% 29.86 in 10.0 mi NW 8.1 mph - N/A   Clear
9:15 PM 69.8 °F - 59.0 °F 68% 29.87 in 10.0 mi NW 8.1 mph - N/A   Clear
9:35 PM 68.0 °F - 59.0 °F 73% 29.87 in 10.0 mi NNW 9.2 mph - N/A   Clear
9:55 PM 66.2 °F - 59.0 °F 78% 29.88 in 10.0 mi NNW 8.1 mph - N/A   Clear
10:15 PM 66.2 °F - 57.2 °F 73% 29.89 in 10.0 mi NW 6.9 mph - N/A   Clear
10:35 PM 64.4 °F - 57.2 °F 77% 29.89 in 10.0 mi NW 8.1 mph - N/A   Clear
10:55 PM 64.4 °F - 57.2 °F 77% 29.90 in 10.0 mi NW 8.1 mph - N/A   Clear
11:15 PM 64.4 °F - 57.2 °F 77% 29.90 in 10.0 mi NNW 9.2 mph - N/A   Clear
11:35 PM 64.4 °F - 57.2 °F 77% 29.90 in 10.0 mi NNW 8.1 mph - N/A   Clear
11:55 PM 62.6 °F - 57.2 °F 82% 29.90 in 10.0 mi NNW 8.1 mph - N/A   Clear